Atqasuk Edward Burnell Sr Mem, AK

9:46 AM AKST on November 15, 2019 (GMT -0900)
Atqasuk Edward Burnell Sr Mem

Weather History for PATQ - October, 2019

Change the Weather History Date:

Sunday, October 13, 2019

  Actual Average (PABR) Record (PABR)
Temperature  
Mean Temperature 20 °F 19 °F  
Max Temperature 28 °F 24 °F 38 °F (2009)
Min Temperature 14 °F 15 °F -18 °F (1924)
Degree Days  
Heating Degree Days 44 46  
Month to date heating degree days 551  
Since 1 July heating degree days 3092  
Cooling Degree Days 0 0  
Month to date cooling degree days 0  
Year to date cooling degree days 0  
Moisture  
Dew Point 20 °F    
Average Humidity 95    
Maximum Humidity 100    
Minimum Humidity 86    
Precipitation  
Precipitation 0.00 in 0.01 in 0.25 in (1972)
Month to date precipitation 0.20  
Year to date precipitation 3.97  
Sea Level Pressure  
Sea Level Pressure 30.10 in    
Wind  
Wind Speed 7 mph (South)    
Max Wind Speed 15 mph    
Max Gust Speed -    
Visibility 3 miles    
Events Fog , Snow    
T = Trace of Precipitation, MM = Missing Value Source: NWS Daily Summary

Daily Weather History Graph

Daily Weather History Graph

Search for Another Location

Airport or City:

Astronomy

Oct. 13, 2019 Rise Set
Actual Time 9:36 AM AKDT 6:53 PM AKDT
Civil Twilight 8:32 AM AKDT 7:57 PM AKDT
Nautical Twilight 7:20 AM AKDT 9:09 PM AKDT
Astronomical Twilight 6:03 AM AKDT 10:25 PM AKDT
Moon 7:44 PM AKDT (10/13) 8:42 AM AKDT (10/13)
Length of Visible Light 11h 24m
Length of Day
9h 16m
Full, 100% of the Moon is Illuminated
Oct 13
Full
Oct 13
Full
Oct 21
Last Quarter
Oct 27
New
Nov 4
First Quarter

Hourly Weather History & Observations

Time (AKDT) Temp. Windchill Dew Point Humidity Pressure Visibility Wind Dir Wind Speed Gust Speed Precip Events Conditions
12:56 AM 21.9 °F 15.7 °F 21.0 °F 96% 30.13 in 2.5 mi SE 4.6 mph - N/A   Partly Cloudy
1:03 AM 21.2 °F 14.9 °F 21.2 °F 100% 30.10 in 3.0 mi SE 4.6 mph - N/A   Partly Cloudy
1:09 AM 21.2 °F 14.9 °F 19.4 °F 93% 30.10 in 1.8 mi SSE 4.6 mph - N/A   Partly Cloudy
2:14 AM 19.4 °F 10.4 °F 17.6 °F 93% 30.11 in 1.2 mi South 6.9 mph - N/A   Scattered Clouds
2:28 AM 17.6 °F 7.3 °F 15.8 °F 93% 30.11 in 1.2 mi South 8.1 mph - N/A   Mostly Cloudy
2:56 AM 18.0 °F 6.9 °F 16.0 °F 92% 30.14 in 1.8 mi South 9.2 mph - 0.00 in   Mostly Cloudy
3:49 AM 15.8 °F 4.2 °F 15.8 °F 100% 30.12 in 0.8 mi SSW 9.2 mph - N/A   Overcast
3:56 AM 16.0 °F 4.4 °F 15.1 °F 96% 30.14 in 0.8 mi SSW 9.2 mph - N/A   Overcast
4:34 AM 15.8 °F 7.2 °F 15.8 °F 100% 30.12 in 1.5 mi South 5.8 mph - N/A   Scattered Clouds
4:38 AM 15.8 °F 8.6 °F 14.0 °F 93% 30.12 in 2.0 mi South 4.6 mph - N/A   Mostly Cloudy
4:47 AM 15.8 °F 7.2 °F 12.2 °F 86% 30.12 in 2.5 mi SSW 5.8 mph - N/A   Scattered Clouds
4:56 AM 15.1 °F 6.4 °F 12.9 °F 91% 30.14 in 2.5 mi SSW 5.8 mph - N/A   Scattered Clouds
5:26 AM 14.0 °F 6.5 °F 12.2 °F 93% 30.11 in 3.0 mi South 4.6 mph - N/A   Clear
5:40 AM 14.0 °F 6.5 °F 12.2 °F 93% 30.11 in 2.5 mi South 4.6 mph - N/A   Partly Cloudy
5:52 AM 14.0 °F 5.1 °F 12.2 °F 93% 30.11 in 1.8 mi SSW 5.8 mph - N/A   Scattered Clouds
5:56 AM 14.0 °F 5.1 °F 12.0 °F 92% 30.13 in 2.5 mi South 5.8 mph - N/A   Scattered Clouds
6:03 AM 14.0 °F 5.1 °F 12.2 °F 93% 30.11 in 3.0 mi South 5.8 mph - N/A   Scattered Clouds
6:38 AM 14.0 °F 2.9 °F 12.2 °F 93% 30.11 in 1.0 mi South 8.1 mph - 0.00 in Snow Light Snow
6:56 AM 15.1 °F 4.2 °F 12.9 °F 91% 30.14 in 0.8 mi South 8.1 mph - 0.00 in Snow Light Snow
7:42 AM 17.6 °F 8.2 °F 17.6 °F 100% 30.11 in 0.8 mi South 6.9 mph - 0.00 in Snow Light Snow
7:49 AM 19.4 °F 9.5 °F 19.4 °F 100% 30.11 in 1.2 mi SSW 8.1 mph - 0.00 in Snow Light Snow
8:10 AM 21.2 °F 12.6 °F 21.2 °F 100% 30.11 in 2.0 mi SSW 6.9 mph - 0.00 in Snow Light Snow
8:22 AM 21.2 °F 10.9 °F 21.2 °F 100% 30.11 in 1.2 mi SSW 9.2 mph - 0.00 in   Overcast
8:42 AM 23.0 °F 12.4 °F 21.2 °F 93% 30.10 in 3.0 mi SSW 10.4 mph - 0.00 in   Overcast
8:49 AM 23.0 °F 13.1 °F 21.2 °F 93% 30.10 in 1.8 mi SSW 9.2 mph - 0.00 in   Overcast
8:56 AM 23.0 °F 12.4 °F 21.9 °F 96% 30.13 in 0.8 mi SSW 10.4 mph - 0.00 in Snow Light Snow
9:14 AM 24.8 °F 16.9 °F 23.0 °F 93% 30.10 in 0.2 mi SSW 6.9 mph - 0.00 in Fog , Snow Light Snow
9:56 AM 25.0 °F 13.6 °F 24.1 °F 96% 30.12 in 0.2 mi SSW 12.7 mph - 0.00 in Fog , Snow Light Snow
10:00 AM 24.8 °F 12.4 °F 24.8 °F 100% 30.10 in 0.8 mi SSW 15.0 mph - 0.00 in Snow Light Snow
10:30 AM 24.8 °F 12.9 °F 24.8 °F 100% 30.09 in 1.0 mi South 13.8 mph - 0.00 in   Overcast
10:38 AM 24.8 °F 13.4 °F 24.8 °F 100% 30.09 in 1.2 mi South 12.7 mph - 0.00 in   Overcast
10:53 AM 24.8 °F 12.9 °F 23.0 °F 93% 30.09 in 0.8 mi South 13.8 mph - 0.00 in Snow Light Snow
10:56 AM 24.1 °F 12.5 °F 23.0 °F 96% 30.12 in 0.5 mi South 12.7 mph - 0.00 in Fog , Snow Light Snow
11:05 AM 24.8 °F 12.9 °F 23.0 °F 93% 30.09 in 1.0 mi SSW 13.8 mph - 0.00 in Snow Light Snow
11:26 AM 24.8 °F 13.4 °F 24.8 °F 100% 30.09 in 0.2 mi SSW 12.7 mph - 0.00 in Fog , Snow Light Snow
12:56 PM 26.1 °F 18.4 °F 25.0 °F 96% 30.10 in 0.2 mi South 6.9 mph - N/A Fog Light Freezing Fog
1:20 PM 24.8 °F 16.9 °F 24.8 °F 100% 30.08 in 0.2 mi South 6.9 mph - N/A Fog Light Freezing Fog
1:29 PM 24.8 °F 17.9 °F 23.0 °F 93% 30.08 in 0.5 mi South 5.8 mph - N/A Fog Light Freezing Fog
1:56 PM 23.0 °F 14.7 °F 21.9 °F 96% 30.10 in 0.2 mi South 6.9 mph - N/A Fog Light Freezing Fog
2:06 PM 23.0 °F 15.8 °F 21.2 °F 93% 30.07 in 1.0 mi South 5.8 mph - N/A   Mist
2:16 PM 23.0 °F 14.7 °F 21.2 °F 93% 30.07 in 10.0 mi South 6.9 mph - N/A   Partly Cloudy
2:56 PM 24.1 °F 14.4 °F 23.0 °F 96% 30.09 in 10.0 mi South 9.2 mph - N/A   Clear
3:56 PM 23.0 °F 13.9 °F 21.0 °F 92% 30.07 in 10.0 mi SSW 8.1 mph - N/A   Clear
4:56 PM 21.9 °F 12.5 °F 19.9 °F 92% 30.06 in 10.0 mi South 8.1 mph - N/A   Clear
5:56 PM 19.9 °F 9.3 °F 18.0 °F 92% 30.05 in 10.0 mi South 9.2 mph - N/A   Clear
6:56 PM 18.0 °F 7.7 °F 17.1 °F 96% 30.04 in 10.0 mi South 8.1 mph - N/A   Scattered Clouds
10:56 PM 27.0 °F 18.7 °F 25.0 °F 92% 30.01 in 10.0 mi SSW 8.1 mph - N/A   Overcast
11:08 PM 26.6 °F 18.2 °F 26.6 °F 100% 29.99 in 10.0 mi SSW 8.1 mph - N/A   Overcast
11:56 PM 28.0 °F 20.0 °F 26.1 °F 92% 30.01 in 10.0 mi SSW 8.1 mph - N/A   Overcast